www.pogodaiklimat.ru

Погода и климат >> Архив погоды >> Италия >> Понца


ПОГОДА на Понце

  • Прогноз погоды на Понце
  • Монитор погоды на Понце

АРХИВ ПОГОДЫ на Понце

Время (UTC), дата Ветер
(напр.,м/с)
 
Видим.   Явления Облачность Т
(С)
Тd
(С)
f
(%)
Тe
(С)
Тes
(С)
Комфортность P
(гПа)
Po
(гПа)
Тmin
(С)
Tmax
(С)
R
(мм)
R24
(мм)
S
(см)
13 14.08 З 9
{15}
15 км ясно +26.8 +21.8 74 +34 +36 очень
душно
1011.1 990.1
14 14.08 З 7 10 км ясно +26.6 +22.9 80 +35 +38 очень
душно
1010.7 989.7
15 14.08 З 6 10 км ясно +26.6 +23.3 82 +36 +38 очень
душно
1010.9 989.9
16 14.08 З 10
{14}
15 км ясно +25.8 +24.0 90 +36 +36 очень
душно
1010.5 989.5
17 14.08 З 7
{11}
15 км 3/3 540 м
[Cu med, cong]
+25.0 +23.6 92 +34 +34 очень
душно
1010.7 989.6
18 14.08 З 8 10 км ясно +24.8 +24.1 96 +34 +34 очень
душно
1010.6 989.5 +27.5
19 14.08 З 10
{14}
10 км ясно +24.6 +24.3 98 +34 +34 очень
душно
1011.1 990.0
20 14.08 З 10 10 км ясно +24.2 +23.9 98 +33 +33 очень
душно
1011.0 989.8
21 14.08 З 10 10 км ясно +24.6 +24.3 98 +34 +34 очень
душно
1011.7 990.5
22 14.08 З 11 10 км 3/3 540 м
[Cu med, cong]
+24.8 +24.5 98 +35 +35 очень
душно
1012.1 991.0
23 14.08 З 8
{12}
10 км 5/5 500 м
[Cu med, cong]
+24.8 +24.0 95 +34 +34 очень
душно
1012.1 991.0
00 15.08 З 7
{12}
10 км 5/5 500 м
[Cu med, cong]
+24.8 +24.1 96 +34 +34 очень
душно
1012.1 991.0
01 15.08 З 6
{10}
10 км 5/5 500 м
[Cu med, cong]
+24.8 +24.0 95 +34 +34 очень
душно
1012.1 991.0
02 15.08 С 3 10 км ясно +14.8 +14.3 97 +14 +14 1012.8 991.0
03 15.08 СЗ 3 10 км ясно +24.6 +23.9 96 +34 +34 очень
душно
1012.1 990.9
04 15.08 10 км ясно +24.6 +23.7 95 1012.0 990.8
05 15.08 В 3
{5}
10 км ясно +24.4 +24.1 98 +34 +34 очень
душно
1011.8 990.6
06 15.08 В 4 20 км ясно +25.0 +23.1 89 +33 +35 очень
душно
1012.3 991.2 +23.8
07 15.08 В 4
{7}
20 км ясно +25.8 +23.3 86 +35 +39 очень
душно
1013.1 992.0
08 15.08 В 4 20 км ясно +27.0 +22.6 77 +36 +43 очень
душно
1013.0 992.0
09 15.08 В 3
{6}
20 км ясно +28.8 +23.0 71 +39 +49 очень
душно
1013.4 992.5
10 15.08 СВ 3 30 км ясно +30.0 +23.0 66 +40 +55 опасность
солнечного
удара
1013.5 992.7
11 15.08 20 км ясно +29.8 +23.3 68 1013.6 992.8
12 15.08 З 3 20 км ясно +28.2 +24.0 78 +39 +54 опасность
солнечного
удара
1013.4 992.5
13 15.08 З 4 20 км ясно +28.0 +24.8 83 +40 +49 очень
душно
1013.1 992.2
14 15.08 З 4
{6}
30 км ясно +28.2 +22.4 71 +37 +44 очень
душно
1012.9 992.0
15 15.08 З 5 20 км ясно +28.0 +23.2 75 +38 +41 очень
душно
1012.9 992.0
16 15.08 З 6 20 км ясно +26.8 +23.1 80 +36 +37 очень
душно
1012.7 991.7
17 15.08 З 5
{9}
30 км ясно +26.2 +22.9 82 +35 +35 очень
душно
1012.5 991.5
18 15.08 З 5 20 км ясно +25.6 +22.9 85 +34 +34 очень
душно
1012.8 991.7 +30.5
19 15.08 СЗ 8
{10}
30 км ясно +25.0 +23.3 90 +33 +33 очень
душно
1013.3 992.2
20 15.08 З 8 20 км ясно +25.0 +22.5 86 +33 +33 очень
душно
1013.8 992.6
21 15.08 З 7 20 км ясно +25.0 +23.3 90 +33 +33 очень
душно
1014.0 992.8
22 15.08 СЗ 7 20 км ясно +25.0 +23.3 90 +33 +33 очень
душно
1013.9 992.7
23 15.08 З 9 20 км ясно +24.8 +22.7 88 +33 +33 очень
душно
1013.8 992.6
00 16.08 З 9
{13}
30 км ясно +24.4 +23.7 96 +33 +33 очень
душно
1013.4 992.2
02 16.08 З 3 20 км ясно +24.0 +23.5 97 +32 +32 очень
душно
1013.1 991.9
03 16.08 З 3
{7}
30 км ясно +24.0 +21.7 87 +31 +31 очень
душно
1013.0 991.8
04 16.08 З 3 30 км ясно +23.6 +22.0 91 +30 +30 очень
душно
1013.0 991.8
05 16.08 З 2 20 км 1/1 300 м
[Cu hum]
+23.6 +22.9 96 +31 +32 очень
душно
1013.2 992.0
06 16.08 З 2 20 км ясно +24.2 +23.3 95 +32 +35 очень
душно
1013.2 992.0 +23.4
07 16.08 20 км 4/4 360 м
[Cu hum]
+25.2 +23.4 90 1013.6 992.5
08 16.08 З 3 20 км 4/4 360 м
[Cu hum]
+26.0 +24.0 89 +36 +41 очень
душно
1013.8 992.7
09 16.08 З 3 20 км 5/5 360 м
[Cu hum]
+27.0 +24.8 88 +39 +44 очень
душно
1014.0 993.0
10 16.08 20 км 5/5 360 м
[Cu hum]
+26.4 +24.3 88 1014.1 993.0
11 16.08 З 4 20 км 3/3 360 м
[Cu hum]
+27.0 +24.7 87 +38 +47 очень
душно
1014.0 993.0
12 16.08 нст 2
{7}
20 км 3/3 540 м
[Cu med, cong]
+27.4 +23.7 80 +37 +49 очень
душно
1013.9 992.9
13 16.08 З 3
{6}
20 км 3/3 500 м
[Cu med, cong]
+28.0 +24.0 79 +39 +47 очень
душно
1013.5 992.5
14 16.08 З 3
{6}
20 км 3/3 500 м
[Cu med, cong]
+28.0 +25.0 84 +40 +46 очень
душно
1013.6 992.6
15 16.08 З 3 20 км 3/3 500 м
[Cu med, cong]
+27.2 +24.5 85 +38 +42 очень
душно
1013.3 992.3
16 16.08 СЗ 3 20 км 3/3 540 м
[Cu med, cong]
+27.0 +25.2 90 +39 +41 очень
душно
1013.2 992.2
17 16.08 С 4 20 км ясно +26.4 +24.3 88 +37 +37 очень
душно
1013.1 992.0
18 16.08 СЗ 4 10 км 4/0
[Ci fib]
+25.8 +25.5 98 +38 +38 очень
душно
1013.1 992.1 +28.5
19 16.08 СЗ 3
{6}
10 км 4/0
[Ci fib]
+25.8 +25.3 97 +37 +37 очень
душно
1013.1 992.1
20 16.08 С 4
{6}
10 км ясно +25.6 +24.7 95 +36 +36 очень
душно
1013.1 992.0
21 16.08 С 4 10 км ясно +25.4 +24.5 95 +36 +36 очень
душно
1013.2 992.1
22 16.08 10 км ясно +25.0 +24.7 98 1014.5 993.3
23 16.08 С 4 15 км ясно +24.6 +24.3 98 +34 +34 очень
душно
1014.0 992.8
00 17.08 нст 4 10 км 4/4 500 м
[Cu med, cong]
+24.4 +23.7 96 +33 +33 очень
душно
1014.2 993.0
01 17.08 10 км 5/5 500 м
[Cu med, cong]
+24.6 +23.9 96 1015.2 994.0
02 17.08 10 км 4/4 450 м
[Cu med, cong]
+24.4 +23.6 95 1015.2 994.0
03 17.08 С 4 15 км н/о +24.4 +23.9 97 +33 +33 очень
душно
1015.0 993.8
04 17.08 С 2 10 км 4/4 500 м
[Cu med, cong]
+24.4 +24.1 98 +34 +34 очень
душно
1015.0 993.8
05 17.08 С 3 10 км 4/4 500 м
[Cu med, cong]
+24.4 +24.1 98 +34 +34 очень
душно
1015.0 993.8
06 17.08 С 3 10 км 5/5 450 м
[Cu med, cong]
+25.0 +24.7 98 +35 +36 очень
душно
1014.2 993.0 +24.0
07 17.08 С 3 10 км 4/4 450 м
[Cu med, cong]
+26.2 +24.8 92 +37 +40 очень
душно
1014.5 993.4
08 17.08 С 3 10 км 3/3 500 м
[Cu med, cong]
+27.0 +24.5 86 +38 +43 очень
душно
1016.1 995.0
09 17.08 нст 4 10 км 4/3 500 м
[Cu med, cong Ci fib]
+28.0 +24.8 83 +40 +47 очень
душно
1016.5 995.5
10 17.08 С 3 20 км 5/3 500 м
[Cu med, cong Ci fib]
+28.2 +24.0 78 +39 +48 очень
душно
1016.8 995.8
11 17.08 СЗ 2 20 км 6/3 500 м
[Cu med, cong Ac trans]
+27.0 +23.7 82 +37 +46 очень
душно
1016.8 995.7
12 17.08 З 2 10 км 6/0
[Ci fib]
+27.8 +25.0 85 +40 +54 опасность
солнечного
удара
1016.6 995.6
13 17.08 З 3 10 км 6 баллов +27.6 +25.8 90 +41 +46 опасность
перегрева
1016.1 995.1
14 17.08 З 4
{6}
15 км 6 баллов +27.4 +25.4 89 +40 +43 очень
душно
1016.0 995.0
15 17.08 З 4
{7}
20 км н/о +27.0 +24.8 88 +39 +41 очень
душно
1016.1 995.0
16 17.08 З 4
{7}
15 км 5 баллов +27.2 +23.2 79 +37 +38 очень
душно
1016.0 995.0
17 17.08 З 6 20 км 5/0
[Ci fib]
+25.8 +23.7 88 +35 +35 очень
душно
1015.6 994.5
18 17.08 З 5 20 км 5/0
[Ci fib]
+25.2 +24.9 98 +36 +36 очень
душно
1015.1 994.0 +29.5
19 17.08 СЗ 6 20 км 5/0
[Ci fib]
+25.0 +24.3 96 +35 +35 очень
душно
1015.1 994.0
20 17.08 СЗ 6 20 км 5/0
[Ci fib]
+25.0 +23.6 92 +34 +34 очень
душно
1015.1 994.0
21 17.08 СЗ 6
{8}
20 км 5/0
[Ci fib]
+24.8 +24.1 96 +34 +34 очень
душно
1016.0 994.8
22 17.08 СЗ 5 20 км 5/0
[Ci fib]
+24.8 +24.0 95 +34 +34 очень
душно
1015.8 994.6
00 18.08 СЗ 5 10 км ясно +24.4 +24.1 98 +34 +34 очень
душно
1015.7 994.5
01 18.08 З 5
{8}
15 км 3/3 450 м
[Cu hum]
+24.2 +24.0 99 +33 +33 очень
душно
1015.7 994.5
03 18.08 СЗ 4
{7}
15 км ясно +24.4 +24.4 100 +34 +34 очень
душно
1015.3 994.1
04 18.08 З 4
{6}
15 км ясно +24.2 +23.9 98 +33 +33 очень
душно
1015.3 994.1
05 18.08 СЗ 4 10 км ясно +25.0 +24.8 99 +35 +36 очень
душно
1015.3 994.1
06 18.08 З 2 10 км ясно +25.2 +25.0 99 +36 +38 очень
душно
1016.0 994.8 +24.0
07 18.08 С 3 10 км ясно +26.4 +24.6 90 +37 +42 очень
душно
1016.1 995.0
08 18.08 20 км ясно +27.6 +24.9 85 1016.0 995.0
09 18.08 С 2 20 км ясно +28.2 +24.0 78 +39 +52 опасность
солнечного
удара
1016.0 995.0
10 18.08 С 2 20 км ясно +28.8 +25.0 80 +42 +57 опасность
перегрева
1016.0 995.1
11 18.08 З 2 10 км ясно +28.0 +24.2 80 +39 +58 опасность
солнечного
удара
1016.3 995.3
12 18.08 З 3 10 км ясно +28.8 +22.8 70 +38 +53 опасность
солнечного
удара
1016.1 995.1
13 18.08 З 4 10 км ясно +29.4 +23.4 70 +40 +49 очень
душно
1016.1 995.2
14 18.08 З 4 10 км ясно +29.6 +24.7 75 +42 +50 опасность
перегрева
1015.9 995.0
15 18.08 З 4 10 км ясно +29.0 +26.2 85 +44 +48 опасность
перегрева
1015.8 994.8
16 18.08 З 4 15 км 3/0
[Ci fib]
+27.8 +25.2 86 +40 +42 очень
душно
1015.6 994.6
17 18.08 З 4 10 км 3/0
[Ci fib]
+26.6 +23.5 83 +36 +36 очень
душно
1015.2 994.1
18 18.08 З 4 10 км 3/0
[Ci fib]
+26.0 +23.3 85 +35 +35 очень
душно
1015.1 994.0 +30.0
19 18.08 СЗ 4 20 км ясно +25.0 +23.4 91 +34 +34 очень
душно
1015.0 993.9
20 18.08
{6}
10 км 3/0
[Ci fib]
+25.4 +24.5 95 1015.2 994.0
21 18.08 СЗ 4 20 км ясно +25.0 +23.6 92 +34 +34 очень
душно
1015.3 994.1
22 18.08 СЗ 4 15 км ясно +25.0 +24.8 99 +35 +35 очень
душно
1015.3 994.1
23 18.08 СЗ 4 10 км ясно +24.8 +24.1 96 +34 +34 очень
душно
1015.7 994.5
00 19.08 СЗ 4 20 км ясно +25.2 +22.9 87 +33 +33 очень
душно
1015.8 994.6
01 19.08 З 3 20 км ясно +25.0 +18.0 65 +29 +29 душно 1015.8 994.6
02 19.08 З 4 10 км ясно +24.6 +21.9 85 +32 +32 очень
душно
1015.8 994.6
03 19.08 СЗ 4 10 км ясно +24.2 +22.8 92 +32 +32 очень
душно
1015.9 994.6
04 19.08 СЗ 4 10 км ясно +24.0 +23.2 95 +32 +32 очень
душно
1015.9 994.7
05 19.08 СЗ 4 10 км ясно +24.2 +23.5 96 +33 +33 очень
душно
1015.8 994.6
06 19.08 СЗ 4 10 км ясно +25.0 +24.0 94 +34 +36 очень
душно
1015.9 994.7 +23.6
07 19.08 СЗ 3 10 км ясно +25.2 +24.0 93 +35 +39 очень
душно
1016.4 995.2
09 19.08 нст 1 10 км ясно +26.8 +24.8 89 +38 +53 опасность
солнечного
удара
1016.1 995.0
10 19.08 СЗ 2 15 км ясно +27.0 +23.5 81 +37 +52 опасность
солнечного
удара
1016.9 995.8
12 19.08 З 3 20 км ясно +27.2 +24.1 83 +38 +51 опасность
солнечного
удара
1016.8 995.8
13 19.08 З 5 15 км ясно +27.0 +23.0 79 +36 +44 очень
душно
1017.0 995.9
14 19.08 З 7 20 км ясно +26.8 +25.0 90 +39 +42 очень
душно
1016.8 995.7
15 19.08 З 7 20 км ясно +26.8 +24.5 87 +38 +40 очень
душно
1016.4 995.3
16 19.08 З 6 20 км ясно +26.0 +24.0 89 +36 +37 очень
душно
1016.2 995.1
17 19.08 СЗ 5 20 км ясно +25.8 +24.0 90 +36 +36 очень
душно
1016.1 995.0
18 19.08 СЗ 5 20 км ясно +25.2 +24.9 98 +36 +36 очень
душно
1016.2 995.0 +28.0
19 19.08 СЗ 5 20 км ясно +25.0 +24.8 99 +35 +35 очень
душно
1016.2 995.0
20 19.08 З 5 30 км ясно +25.0 +23.6 92 +34 +34 очень
душно
1016.3 995.1
21 19.08 СЗ 5 20 км ясно +25.0 +24.7 98 +35 +35 очень
душно
1016.5 995.3
22 19.08 СЗ 4
{7}
30 км ясно +24.8 +24.0 95 +34 +34 очень
душно
1016.5 995.3
00 20.08 З 6 20 км ясно +25.2 +24.9 98 +36 +36 очень
душно
1016.4 995.2
02 20.08 З 5 20 км ясно +25.0 +24.1 95 +34 +34 очень
душно
1016.2 995.0
03 20.08 З 5 10 км ясно +24.6 +24.3 98 +34 +34 очень
душно
1016.2 995.0
04 20.08 З 5 10 км ясно +25.0 +24.7 98 +35 +35 очень
душно
1016.2 995.0
06 20.08 СЗ 4 10 км ясно +25.4 +25.1 98 +36 +38 очень
душно
1016.1 994.9 +24.6
07 20.08 С 4 10 км ясно +26.4 +26.1 98 +39 +43 очень
душно
1016.2 995.1
08 20.08 СЗ 2 10 км ясно +27.4 +25.8 91 +41 +50 опасность
перегрева
1016.1 995.1
09 20.08 З 2 10 км ясно +27.4 +25.6 90 +40 +53 опасность
солнечного
удара
1016.8 995.8
10 20.08 З 3 10 км ясно +27.0 +24.8 88 +39 +53 опасность
солнечного
удара
1017.1 996.0
11 20.08 З 4 10 км ясно +27.4 +26.0 92 +41 +52 опасность
перегрева
1017.0 996.0
12 20.08 З 4 10 км ясно +27.4 +24.3 83 +38 +50 очень
душно
1017.1 996.0
13 20.08 СЗ 3 20 км ясно +28.0 +23.8 78 +39 +50 очень
душно
1017.0 996.0
14 20.08 З 3 20 км ясно +28.6 +24.0 76 +40 +48 очень
душно
1016.9 995.9
15 20.08 СЗ 3 20 км ясно +28.2 +21.3 66 +36 +41 очень
душно
1016.7 995.7
16 20.08 З 4 20 км ясно +28.6 +25.2 82 +42 +43 опасность
перегрева
1016.5 995.5
17 20.08 З 5 20 км ясно +27.4 +25.2 88 +40 +40 очень
душно
1016.2 995.1
18 20.08 СЗ 4 20 км ясно +25.6 +24.9 96 +36 +36 очень
душно
1016.2 995.0 +29.0
19 20.08 СЗ 5 20 км ясно +24.8 +24.3 97 +34 +34 очень
душно
1016.3 995.1
20 20.08 З 4
{7}
20 км ясно +25.0 +23.6 92 +34 +34 очень
душно
1016.8 995.6
21 20.08 СЗ 4 20 км ясно +25.0 +23.3 90 +33 +33 очень
душно
1016.9 995.7
22 20.08 СЗ 4 10 км ясно +25.0 +23.3 90 +33 +33 очень
душно
1016.8 995.6
23 20.08 СЗ 4 10 км ясно +25.0 +24.1 95 +34 +34 очень
душно
1016.2 995.0
00 21.08 З 4 15 км ясно +24.8 +24.5 98 +35 +35 очень
душно
1016.3 995.1
01 21.08 З 4 10 км ясно +24.8 +24.5 98 +35 +35 очень
душно
1016.3 995.1
02 21.08 З 4
{7}
15 км ясно +24.8 +24.5 98 +35 +35 очень
душно
1016.2 995.0
03 21.08 СЗ 5 15 км ясно +24.6 +24.3 98 +34 +34 очень
душно
1016.2 995.0
06 21.08 З 5
{9}
10 км ясно +24.4 +24.1 98 +34 +35 очень
душно
1015.4 994.1 +24.2
07 21.08 З 6 10 км ясно +26.0 +25.7 98 +38 +40 очень
душно
1015.9 994.7
08 21.08 З 5 20 км ясно +26.0 +25.7 98 +38 +43 очень
душно
1017.1 996.0
09 21.08 З 3 20 км ясно +27.0 +26.5 97 +41 +52 опасность
перегрева
1017.3 996.2
10 21.08 З 2 20 км ясно +27.2 +24.1 83 +38 +54 опасность
солнечного
удара
1017.3 996.2
11 21.08 З 3 20 км ясно +28.4 +25.2 83 +41 +55 опасность
перегрева
1017.1 996.1
12 21.08 З 4 10 км ясно +25.4 +22.5 84 +33 +45 очень
душно
1017.3 996.1

 

Местоположение метеостанции Понца (Италия): широта 40.92 долгота 12.95 высота над уровнем моря 185 м.

В архиве по умолчанию представлена погода на Понце за последнюю неделю. Архивные данные за месяц целиком и за предыдущие месяцы, начиная с января 2011 года, Вы можете получить, выбрав интересующий диапазон дат из раскрывающегося списка и нажав кнопку "Ввод!".


*Определитесь, кто Вы:
робот инопланетянин человек

Внимание! Время в таблицах - всемирное. Для получения местного времени необходимо прибавить поправку, которая равна 1 ч.

Смотрите также архив погоды в соседних городах и на ближайших метеорологических станциях:

Погода в Торре-Олеволе (Италия) (39 км)
Погода в Латине (Италия) (70 км)
Погода в Латине 2 (Италия) (70 км)
Погода во Фрозиноне (Италия) (84 км)
Погода в Пратика-ди-Маре (Италия) (91 км)
Погода в Граццанизе (Италия) (95 км)
Погода на Капри (Италия) (113 км)
Погода в Неаполе (Италия) (114 км)
Погода в Риме (Италия) (115 км)
Погода в Казерте (Италия) (116 км)

Пояснения к столбцам:

Ветер - указаны скорость ветра в м/с - средняя за 10 мин, порывы в срок и между сроками (в фигурных скобках) и направление, откуда дует ветер: С - северный, СВ - северо-восточный, В - восточный, ЮВ - юго-восточный, Ю - южный, ЮЗ - юго-западный, З - западный, СЗ - северо-западный.
Видимость - горизонтальная дальность видимости в метрах или километрах. При видимости от 1 до 10 км при отсутствии осадков обычно наблюдается дымка, при ухудшении видимости до 1 км и менее - туман. В сухую погоду видимость может ухудшаться дымом, пылью или мглою.
Явления - указаны атмосферные явления, наблюдавшиеся в срок или в последний час перед сроком; фигурными скобками обозначены явления, наблюдавшиеся между сроками (за 1-3 часа до срока); квадратными скобками обозначены град или гололедные отложения с указанием их диаметра в мм.
Облачность - указаны через наклонную черту общая и нижняя облачность в баллах и высота нижней границы облаков в метрах; квадратными скобками обозначены формы облаков: Ci - перистые, Cs - перисто-слоистые, Cc - перисто-кучевые, Ac - высококучевые, As - высокослоистые, Sc - слоисто-кучевые, Ns - слоисто-дождевые, Cu - кучевые, Cb - кучево-дождевые. Подробнее классификацию облаков см. в Атласе облаков (PDF).
T - Температура воздуха - температура, измеренная на высоте 2 м над землей.
Td - Температура точки росы - температура, при понижении до которой содержащийся в воздухе водяной пар достигнет насыщения.
f - Относительная влажность воздуха - влажноcть воздуха, измеренная на высоте 2 м над землей.
Te - Эффективная температура - температура, которую ощущает одетый по сезону человек в тени. Характеристика душности погоды. При расчете учитывается влияние влажности воздуха и скорости ветра на теплоощущения человека.
Tes - Эффективная температура на солнце - температура, которую ощущает человек, с поправкой на солнечный нагрев. Характеристика знойности погоды. Зависит от высоты солнца над горизонтом, облачности и скорости ветра. Ночью, в пасмурную погоду, а также при ветре 12 м/с и более поправка равна нулю.
P - Атмосферное давление - приведенное к уровню моря атмосферное давление.
Po - Атмосферное давление - измеренное на уровне метеостанции атмосферное давление.
Tmin - Минимальная температура - минимум температуры воздуха на высоте 2 м над землей.
Tmax - Максимальная температура - максимум температуры воздуха на высоте 2 м над землей.
R - Количество осадков - Количество выпавших осадков за период времени, мм. При наведении курсора мыши на число - период времени, за который выпало указанное количество осадков.
R24 - Количество осадков - Количество выпавших осадков за 24 часа, мм.
S - Снежный покров - Высота снежного покрова, см. При наведении курсора мыши на число - состояние снежного покрова и степень покрытия местности в баллах.